Location: La Fredeussais
(48.1780°N, 1.3980°W)
Time: 07:32:56
(UTC+00:00)

ITUPSAT 1 - Pass Details

Date: 29 October 2021
Orbit: 702 x 712 km, 98.6° (Epoch: 07 December)

Event Time Altitude Azimuth Distance (km) Brightness Sun altitude
Rises 05:21:19 0° 120° (ESE) 3,084 ? -14.7°
Reaches altitude 10° 05:24:08 10° 103° (ESE) 2,170 ? -14.2°
Maximum altitude 05:27:24 19° 59° (ENE) 1,651 ? -13.7°
Drops below altitude 10° 05:30:42 10° 15° (NNE) 2,180 ? -13.1°
Sets 05:33:31 0° 358° (N) 3,103 ? -12.7°
